Погода в Сетке

Россия / Тульская область     54°40′07″N   38°10′29″E
темп.,
°C
ветер,
м/с
пор.,
м/с
влажн.,
%
обл.,
%
осадки,
мм/ч
давл.,
гПа
погр.,
м
19 апреля, пн
пн1900:00+5всв4993100 0.4 1021344
03:00+5св51190100 2.1 1021427
06:00+5всв51290100 0.7 1021479
09:00+6всв6118998 0.9 1021684
12:00+8всв7976100 0.2 10211023
15:00+7всв71281100 1.0 10211100
18:00+6всв81388100 2.4 10211085
21:00+5в81389100 3.9 1022923
20 апреля, вт
вт2000:00+3всв71397100 1.9 1021746
03:00+3всв71390100 2.1 1020648
06:00+4в71289100 0.0 1020731
09:00+3в71195100 0.0 1020670
12:00+2в71296100 0.1 1019547
15:00+2всв61397100 1.0 1017538
18:00+2в71397100 0.4 1014688
21:00+2всв71597100 1.8 1011668
21 апреля, ср
ср2100:00+1всв71799100 6.8 1006704
03:00+2св714100100 14.6 1001706
06:00+4св511100100 3.0 997367
09:00+3з45100100 6.5 997206
12:00+2зюз81498100 0.5 1003658
15:00+2юз81397100 0.6 1007823
18:00+4юз61193100 0.1 1010677
21:00+4ююз51094100 0.1 1012296
22 апреля, чт
чт2200:00+4ююз51293100 0.1 1013347
03:00+3ююз5119381 0.2 1014298
06:00+3ю5129263 0.0 1014272
09:00+5ююз51189100 0.8 1015502
12:00+10юз697845 1.4 1016728
15:00+12юз597358 2.4 10161246
18:00+12ююз467590 0.8 1016228
21:00+8ююз37895 2.6 1018109
23 апреля, пт
пт2300:00+7ю49886 0.0 1018144
03:00+6ю498922 0.0 1018139
06:00+7ю4987100 0.0 1018177
09:00+9ю4982100 0.0 1018225
12:00+15ю68565 0.0 10171603
15:00+16ю795066 0.0 10152496
18:00+13ю5116497 0.1 1015387
21:00+10ююв513765 0.1 1014266